Waarnemingen

Advertentie
Mijn weer
Cap Corse, Frankrijk (7785): temperatuur & dauwpunt: 17.09.2019 13:00:00 - 23.09.2019 13:00:00 (CEST)Cap Corse, Frankrijk (7785): windsnelheid & windstoten: 17.09.2019 13:00:00 - 23.09.2019 13:00:00 (CEST)Cap Corse, Frankrijk (7785): windrichting: 17.09.2019 13:00:00 - 23.09.2019 13:00:00 (CEST)Cap Corse, Frankrijk (7785): luchtdruk: 17.09.2019 13:00:00 - 23.09.2019 13:00:00 (CEST)Cap Corse, Frankrijk (7785): zicht: 17.09.2019 13:00:00 - 23.09.2019 13:00:00 (CEST)Cap Corse, Frankrijk (7785): neerslag: 17.09.2019 13:00:00 - 23.09.2019 13:00:00 (CEST)
Datum & Tijd tt [°C] td [°C] ff [km/u] ff [kn] fx [km/u] fx [kn] dd ppp [hPa] vv [km] rr [mm]
23.09.2019 13:00:00 22,2 19,6 49 26 66 36 W 1012,3 - 0,0
23.09.2019 12:00:00 23,3 20,4 33 18 73 39 W 1012,5 - 0,0
23.09.2019 11:00:00 22,6 20,7 41 22 73 40 ZW 1012,0 12 0,2
23.09.2019 10:00:00 22,1 20,2 24 13 51 28 W 1013,3 - 0,0
23.09.2019 09:00:00 22,0 19,7 27 15 49 26 WZW 1013,3 - 0,0
23.09.2019 08:00:00 20,9 19,7 17 9 31 17 WZW 1013,5 18 0,0
23.09.2019 07:00:00 20,4 19,7 9 5 21 11 W 1013,2 - 0,0
23.09.2019 06:00:00 20,6 19,9 20 11 28 15 NW 1013,2 - 0,0
23.09.2019 05:00:00 20,6 19,9 5 3 13 7 NNW 1013,0 - 0,0
23.09.2019 04:00:00 20,9 20,2 12 6 19 10 WNW 1013,6 - 0,2
23.09.2019 03:00:00 21,2 20,4 12 6 22 12 WNW 1013,5 - 0,0
23.09.2019 02:00:00 21,5 20,7 13 7 17 9 WNW 1013,4 - 0,0
23.09.2019 01:00:00 22,5 21,5 11 6 26 14 W 1013,1 - 0,0
23.09.2019 00:00:00 22,9 20,6 18 10 30 16 WZW 1012,9 - 0,0
22.09.2019 23:00:00 22,9 19,7 12 7 31 17 WZW 1012,7 - 0,0
22.09.2019 22:00:00 22,9 18,9 7 4 17 9 W 1012,9 - 0,0
22.09.2019 21:00:00 22,7 18,5 6 3 31 17 ONO 1012,6 - 0,0
22.09.2019 20:00:00 22,2 19,2 31 17 55 30 ZZO 1012,2 15 0,0
22.09.2019 19:00:00 22,7 18,9 42 23 71 39 ZO 1012,2 - 0,0
22.09.2019 18:00:00 22,4 18,6 51 28 74 40 ZZO 1012,0 - 0,0
22.09.2019 17:00:00 23,6 18,3 51 27 76 41 ZO 1012,2 - 0,0
22.09.2019 16:00:00 24,0 18,9 46 25 82 45 ZO 1012,1 - 0,0
22.09.2019 15:00:00 23,5 18,8 63 34 91 49 ZO 1012,3 - 0,0
22.09.2019 14:00:00 23,6 18,9 59 32 92 50 ZO 1012,6 15 0,0
22.09.2019 13:00:00 23,1 18,2 50 27 83 45 ZO 1013,3 - 0,0
22.09.2019 12:00:00 22,8 17,7 49 26 89 48 ZO 1013,7 - 0,0
22.09.2019 11:00:00 20,7 18,1 50 27 82 44 ZO 1014,5 15 0,8
22.09.2019 10:00:00 21,0 17,0 55 30 94 51 ZO 1014,2 - 0,0
22.09.2019 09:00:00 19,9 17,9 58 31 86 46 ZO 1013,9 - 0,4
22.09.2019 08:00:00 20,2 18,1 50 27 70 38 ZO 1015,4 15 0,0
22.09.2019 07:00:00 20,1 18,6 5 3 14 7 W 1015,1 - 0,0
22.09.2019 06:00:00 20,0 18,0 8 4 22 12 W 1014,3 - 0,0
22.09.2019 05:00:00 19,7 18,5 9 5 49 26 ZZO 1015,1 10 0,4
22.09.2019 04:00:00 20,8 18,2 28 15 49 27 ZW 1015,2 - 0,6
22.09.2019 03:00:00 22,4 16,7 25 14 58 31 ZZW 1015,2 - 0,0
22.09.2019 02:00:00 22,0 17,6 31 17 89 48 WZW 1016,0 - 0,0
22.09.2019 01:00:00 24,0 15,8 29 15 - - ZZW 1016,0 - 0,0
22.09.2019 00:00:00 23,2 17,4 45 24 89 48 ZO 1016,3 - 0,0
21.09.2019 23:00:00 23,3 18,2 44 24 85 46 ZO 1016,1 - 0,0
21.09.2019 22:00:00 23,4 18,7 50 27 86 47 ZO 1016,4 - 0,0
21.09.2019 21:00:00 23,1 19,5 54 29 77 42 ZO 1016,1 - 0,0
21.09.2019 20:00:00 22,7 19,7 30 16 61 33 ZO 1017,9 15 0,0
21.09.2019 19:00:00 22,7 19,7 40 21 68 37 ZO 1017,9 - 0,0
21.09.2019 18:00:00 22,5 17,8 36 19 58 31 ZO 1018,3 - 0,0
21.09.2019 17:00:00 23,7 16,7 33 18 71 38 ZO 1019,0 20 0,0
21.09.2019 16:00:00 22,3 16,3 48 26 72 39 OZO 1018,3 - 0,0
21.09.2019 15:00:00 23,4 16,7 30 16 59 32 OZO 1019,6 - 0,0
21.09.2019 14:00:00 23,3 17,1 40 22 59 32 OZO 1020,5 20 0,0
21.09.2019 13:00:00 23,7 14,7 39 21 61 33 OZO 1020,9 - 0,0
21.09.2019 12:00:00 23,4 14,7 30 16 56 30 OZO 1021,5 - 0,0
21.09.2019 11:00:00 23,5 15,8 34 18 58 31 O 1021,1 20 0,0
21.09.2019 10:00:00 21,9 15,7 38 21 52 28 O 1021,1 - 0,0
21.09.2019 09:00:00 21,6 16,1 35 19 46 25 O 1020,9 - 0,0
21.09.2019 08:00:00 21,0 15,1 24 13 46 25 O 1021,2 20 0,0
21.09.2019 07:00:00 20,5 14,8 31 17 51 27 O 1021,1 - 0,0
21.09.2019 06:00:00 20,6 14,5 37 20 51 27 O 1020,7 - 0,0
21.09.2019 05:00:00 20,7 14,8 37 20 55 30 O 1020,8 15 0,0
21.09.2019 04:00:00 20,8 14,4 35 19 49 27 O 1020,8 - 0,0
21.09.2019 03:00:00 20,8 14,4 22 12 50 27 O 1021,3 - 0,0
21.09.2019 02:00:00 21,0 14,6 33 18 52 28 O 1021,3 - 0,0
21.09.2019 01:00:00 21,4 15,0 21 11 53 29 OZO 1021,3 - 0,0
21.09.2019 00:00:00 21,0 14,9 23 12 50 27 O 1021,4 - 0,0
20.09.2019 23:00:00 21,6 13,5 35 19 53 29 O 1021,3 - 0,0
20.09.2019 22:00:00 21,2 14,4 24 13 35 19 O 1021,5 - 0,0
20.09.2019 21:00:00 21,0 12,9 24 13 35 19 OZO 1021,3 - 0,0
20.09.2019 20:00:00 21,3 11,3 22 12 36 20 O 1020,7 - 0,0
20.09.2019 19:00:00 21,6 11,6 23 12 48 26 OZO 1020,4 - 0,0
20.09.2019 18:00:00 22,5 12,7 29 16 45 24 O 1020,2 - 0,0
20.09.2019 17:00:00 22,6 12,5 30 16 42 23 O 1020,7 - 0,0
20.09.2019 16:00:00 22,9 12,2 30 16 45 25 O 1021,0 - 0,0
20.09.2019 15:00:00 23,1 12,4 32 17 52 28 O 1021,0 - 0,0
20.09.2019 14:00:00 23,5 11,9 32 17 58 31 O 1021,4 20 0,0
20.09.2019 13:00:00 22,5 12,1 40 22 58 31 O 1021,5 - 0,0
20.09.2019 12:00:00 22,1 11,5 38 20 57 31 O 1021,8 - 0,0
20.09.2019 11:00:00 22,1 12,1 40 21 60 32 O 1021,9 20 0,0
20.09.2019 10:00:00 21,9 13,0 42 23 56 30 O 1021,5 - 0,0
20.09.2019 09:00:00 21,3 13,0 37 20 57 31 O 1020,9 - 0,0
20.09.2019 08:00:00 20,8 12,5 46 25 66 36 O 1020,0 20 0,0
20.09.2019 07:00:00 20,5 12,7 44 24 66 35 O 1019,9 - 0,0
20.09.2019 06:00:00 20,4 12,9 48 26 74 40 O 1019,5 - 0,0
20.09.2019 05:00:00 20,9 13,6 45 24 63 34 O 1019,5 - 0,0
20.09.2019 04:00:00 20,7 15,3 29 16 44 24 O 1019,7 - 0,0
20.09.2019 03:00:00 20,7 13,9 34 18 62 34 O 1019,6 - 0,0
20.09.2019 02:00:00 21,2 15,9 41 22 61 33 O 1019,4 - 0,0
20.09.2019 01:00:00 21,7 17,3 38 21 56 30 O 1019,4 - 0,0
20.09.2019 00:00:00 22,1 18,3 17 9 32 17 O 1019,4 - 0,0
19.09.2019 23:00:00 22,9 18,7 18 10 35 19 O 1018,8 - 0,0
19.09.2019 22:00:00 22,5 20,0 16 8 25 13 O 1018,3 - 0,0
19.09.2019 21:00:00 22,5 19,7 16 9 24 13 O 1017,7 - 0,0
19.09.2019 20:00:00 22,1 19,6 12 6 18 10 O 1017,2 - 0,0
19.09.2019 19:00:00 23,0 19,8 9 5 15 8 O 1016,8 - 0,0
19.09.2019 18:00:00 24,0 20,1 10 5 14 8 ONO 1016,6 - 0,0
19.09.2019 17:00:00 24,0 19,9 7 4 16 8 NNW 1016,6 15 0,0
19.09.2019 16:00:00 25,2 20,0 10 5 20 11 N 1016,5 - 0,0
19.09.2019 15:00:00 25,0 20,0 12 7 22 12 NNW 1016,4 - 0,0
19.09.2019 14:00:00 24,4 20,3 18 10 31 17 NNW 1016,8 15 0,0
19.09.2019 13:00:00 23,1 20,1 26 14 33 18 N 1016,9 - 0,0
19.09.2019 12:00:00 24,3 20,0 13 7 20 11 NW 1016,9 - 0,0
19.09.2019 11:00:00 24,6 20,1 11 6 19 10 W 1016,7 - 0,0
19.09.2019 10:00:00 22,9 19,7 10 5 17 9 W 1016,3 - 0,0
19.09.2019 09:00:00 22,0 19,7 11 6 16 9 W 1016,2 - 0,0
19.09.2019 08:00:00 21,6 19,5 10 5 19 10 NW 1015,7 15 0,0
19.09.2019 07:00:00 21,4 19,3 13 7 18 10 WNW 1015,2 - 0,0
19.09.2019 06:00:00 21,7 19,3 12 6 22 12 NW 1014,9 - 0,0
19.09.2019 05:00:00 21,9 19,8 14 8 24 13 W 1015,0 - 0,0
19.09.2019 04:00:00 22,1 20,0 16 8 19 11 WNW 1015,2 - 0,0
19.09.2019 03:00:00 22,1 20,2 15 8 18 10 WNW 1015,4 - 0,0
19.09.2019 02:00:00 21,7 19,8 11 6 16 9 W 1015,4 - 0,0
19.09.2019 01:00:00 21,9 20,0 7 4 14 8 WNW 1016,0 - 0,0
19.09.2019 00:00:00 22,0 20,3 12 7 16 9 NW 1016,2 - 0,0
18.09.2019 23:00:00 21,4 19,5 5 3 13 7 Z 1016,0 - 0,0
18.09.2019 22:00:00 22,0 20,1 8 4 17 9 W 1015,8 - 0,0
18.09.2019 21:00:00 22,2 20,1 8 5 15 8 W 1015,7 - 0,0
18.09.2019 20:00:00 22,7 20,4 13 7 31 17 WNW 1015,5 - 0,0
18.09.2019 19:00:00 23,7 20,4 6 3 11 6 ZW 1015,2 - 0,0
18.09.2019 18:00:00 24,2 21,1 5 3 11 6 N 1015,0 - 0,0
18.09.2019 17:00:00 24,0 20,9 9 5 18 10 ONO 1015,0 15 0,0
18.09.2019 16:00:00 24,0 20,9 12 6 23 12 ONO 1015,2 - 0,0
18.09.2019 15:00:00 24,3 21,0 16 8 32 17 O 1015,3 - 0,0
18.09.2019 14:00:00 24,1 21,0 24 13 37 20 O 1015,5 15 0,0
18.09.2019 13:00:00 24,4 20,7 13 7 21 11 ONO 1015,6 - 0,0
18.09.2019 12:00:00 24,7 20,0 14 7 22 12 W 1015,6 - 0,0
18.09.2019 11:00:00 25,2 19,6 8 5 28 15 WNW 1015,6 15 0,0
18.09.2019 10:00:00 25,0 19,6 11 6 25 13 O 1015,5 - 0,0
18.09.2019 09:00:00 24,3 18,9 7 4 18 10 OZO 1015,3 - 0,0
18.09.2019 08:00:00 21,3 18,9 8 5 23 12 ZZW 1015,2 15 0,0
18.09.2019 07:00:00 20,2 18,0 11 6 21 11 ZW 1015,0 - 0,0
18.09.2019 06:00:00 21,4 18,6 16 9 29 16 WZW 1014,9 - 0,0
18.09.2019 05:00:00 21,4 19,5 10 5 25 13 ZW 1015,1 15 0,0
18.09.2019 04:00:00 21,7 20,2 16 9 26 14 WZW 1015,2 - 0,0
18.09.2019 03:00:00 21,2 19,7 10 6 19 10 ZW 1015,4 - 0,0
18.09.2019 02:00:00 21,2 19,1 15 8 21 12 ZW 1015,7 - 0,0
18.09.2019 01:00:00 21,3 19,4 16 9 22 12 ZW 1015,2 - 0,0
18.09.2019 00:00:00 21,5 18,5 10 5 16 9 ZZW 1015,2 - 0,0
17.09.2019 23:00:00 21,6 18,0 10 5 22 12 Z 1015,3 - 0,0
17.09.2019 22:00:00 21,9 17,7 16 9 24 13 ZW 1015,5 - 0,0
17.09.2019 21:00:00 21,9 17,3 13 7 20 11 ZZW 1015,6 - 0,0
17.09.2019 20:00:00 21,7 15,5 13 7 18 10 ZW 1015,2 - 0,0
17.09.2019 19:00:00 23,8 18,4 9 5 14 8 WNW 1015,1 - 0,0
17.09.2019 18:00:00 26,1 17,5 5 3 25 14 W 1015,3 - 0,0
17.09.2019 17:00:00 25,8 16,9 15 8 28 15 W 1015,4 - 0,0
17.09.2019 16:00:00 25,9 16,4 19 10 33 18 W 1015,9 - 0,0
17.09.2019 15:00:00 26,2 17,6 18 10 28 15 WZW 1016,5 - 0,0
17.09.2019 14:00:00 26,1 19,5 20 11 27 15 W 1016,7 15 0,0
17.09.2019 13:00:00 25,9 19,5 16 8 23 13 WZW 1017,1 - 0,0

tt = temperatuur
td = dauwpunt
ff = windsnelheid
fx = windstoten
dd = windrichting
ppp = luchtdruk
vv = zicht
rr = neerslag

Weerstations in de omgeving